Location: Drummondville
(45.8830°N, 72.4830°W)
Time: 06:17:00
(UTC-05:00)

OTV 5 (USA 277) - Pass Details

Date: 19 November 2017
Orbit: 404 x 417 km, 43.0° (Epoch: 07 September)

Event Time Altitude Azimuth Distance (km) Brightness Sun altitude
Exits shadow 04:15:55 15° 129° (SE) 1,201 ? -27.6°
Drops below altitude 10° 04:16:36 10° 124° (SE) 1,453 ? -27.5°
Sets 04:18:46 0° 116° (ESE) 2,311 ? -27.1°
